Regional Weather Roundup
Issued by NWS

Home | Current Version | Previous Version | Text Only | Print | Product List | Glossary Off
Versions: 1 2 3 4 5 6 7 8 9 10 11 12 13 14 15 16 17 18 19 20 21 22 23 24 25 26 27 28 29 30 31 32 33 34 35 36 37 38 39 40 41 42 43 44 45 46 47 48 49 50

000
ASUS43 KLSX 040759
RWRMO

WEATHER SUMMARY FOR MISSOURI
NATIONAL WEATHER SERVICE SPRINGFIELD MO
300 AM CDT MON MAY 04 2015

NOTE: "FAIR" INDICATES FEW OR NO CLOUDS BELOW 12,000 FEET WITH NO
       SIGNIFICANT WEATHER AND/OR OBSTRUCTIONS TO VISIBILITY.
       CURRENT SKY AND/OR WEATHER CONDITIONS ARE NOT AVAILABLE FOR
       CHILLICOTHE AND FARMINGTON.

MOZ001>031-035>038-043-044-053-054-040900-
...NORTHERN AND WESTERN MISSOURI...

CITY           SKY/WX    TMP DP  RH WIND       PRES   REMARKS
KANSAS CTY INT CLOUDY    69  56  62 S14       29.93S
KANSAS C DTWN  MOCLDY    70  56  61 S10       29.93F
LEE`S SUMMIT   MOCLDY    67  55  65 S8        29.95F
ST JOSEPH      CLOUDY    68  58  70 SW8       29.93R
CHILLICOTHE      N/A     67  57  70 S6        29.95R
KIRKSVILLE     CLOUDY    68  58  70 SW9       29.93S

$$
MOZ066>068-077>081-088>096-101>105-040900-
...SOUTHWEST MISSOURI...

CITY           SKY/WX    TMP DP  RH WIND       PRES   REMARKS
SPRINGFIELD    PTCLDY    64  55  72 S10       30.01S
JOPLIN         CLOUDY    67  55  65 S13       30.02R

$$
MOZ032>034-039>042-045>050-055>058-069>072-040900-
...CENTRAL MISSOURI...

CITY           SKY/WX    TMP DP  RH WIND       PRES   REMARKS
COLUMBIA       CLOUDY    63  55  75 S7        29.98S
JEFFERSON CITY CLOUDY    67  54  63 CALM      29.98S
ROLLA          CLOUDY    65  55  70 S10       30.00F
SEDALIA        MOCLDY    65  56  72 S8        29.99R
OSAGE BEACH    MOCLDY    64  54  68 S6        30.00S

$$
MOZ051-052-059>065-040900-
...EAST CENTRAL MISSOURI...

CITY           SKY/WX    TMP DP  RH WIND       PRES   REMARKS
ST LOUIS INTL  CLOUDY    72  53  51 SW8       30.00S
SPIRIT OF STL  CLOUDY    70  54  56 S8        29.98F
ST CHARLES     CLOUDY    68  57  68 SW7       29.97F

$$
MOZ072>076-082>087-097>100-106>115-040900-
...SOUTH CENTRAL AND SOUTHEAST MISSOURI...

CITY           SKY/WX    TMP DP  RH WIND       PRES   REMARKS
CAPE GIRARDEAU MOCLDY    68  50  52 S8        30.05R
FARMINGTON     MOCLDY    63  52  67 SW7       30.08S
POPLAR BLUFF   PTCLDY    60  55  83 CALM      30.05R
WEST PLAINS    PTCLDY    61  53  75 S5        30.06S

$$



USA.gov is the U.S. government's official web portal to all federal, state and local government web resources and services.